Regional Weather Roundup
Issued by NWS

Home | Current Version | Previous Version | Text Only | Print | Product List | Glossary On
Versions: 1 2 3 4 5 6 7 8 9 10 11 12 13 14 15 16 17 18 19 20 21 22 23 24 25 26 27 28 29 30 31 32 33 34 35 36 37 38 39 40 41 42 43 44 45 46 47 48 49 50
000
ASUS46 KPQR 262110
RWROR

OREGON REGIONAL WEATHER ROUNDUP
NATIONAL WEATHER SERVICE PORTLAND OR
200 PM PDT TUE JUL 26 2016

NOTE: "FAIR" INDICATES FEW OR NO CLOUDS BELOW 12,000 FEET WITH
NO SIGNIFICANT WEATHER AND/OR OBSTRUCTIONS TO VISIBILITY.

ORZ001>013-262200-
NORTHWEST OREGON


CITY           SKY/WX    TMP DP  RH WIND       PRES   REMARKS
ASTORIA        MOSUNNY   69  56  62 NW16      30.19S
NEWPORT        SUNNY     64  54  68 N17G29    30.18F
PORTLAND       MOSUNNY   76  54  46 CALM      30.12F
VANCOUVER WA   SUNNY     76  55  48 NW9       30.11F
SCAPPOOSE      SUNNY     77  56  48 E6        30.11F
HILLSBORO      SUNNY     78  57  48 CALM      30.11F
AURORA         MOSUNNY   77  54  44 MISG      30.12F
MCMINNVILLE    SUNNY     82  54  37 N9        30.11F
SALEM          SUNNY     79  53  40 VRB5      30.10F
CORVALLIS        N/A     84  52  32 NE10G16   30.11F
EUGENE         SUNNY     83  54  36 N9G18     30.10F
$$

ORZ021-028-262200-
SOUTHWEST OREGON


CITY           SKY/WX    TMP DP  RH WIND       PRES   REMARKS
NORTH BEND     SUNNY     66  55  68 N28G38    30.11F
BROOKINGS      SUNNY     67  56  67 SE5       29.97F
ROSEBURG       SUNNY     85  55  35 VRB7      30.05F
SEXTON SUMMIT  SUNNY     78  56  46 VRB5      30.16F
MEDFORD        SUNNY     90  50  25 W6        30.00F
$$

ORZ014>016-041-262200-
COLUMBIA GORGE


CITY           SKY/WX    TMP DP  RH WIND       PRES   REMARKS
TROUTDALE      SUNNY     75  56  51 VRB5      30.12F
THE DALLES     SUNNY     86  56  35 N23G35    29.95F
$$

ORZ029>031-041-044-049-050-061>064-502-503-505>511-262200-
EASTERN OREGON


CITY           SKY/WX    TMP DP  RH WIND       PRES   REMARKS
REDMOND        SUNNY     88  41  19 VRB6      30.08F
BEND           SUNNY     84  45  24 NW6G14    30.10F
PRINEVILLE     SUNNY     86  45  23 VRB5G13   30.09F
KLAMATH FALLS  SUNNY     87  43  21 S7        30.13F
LAKEVIEW       SUNNY    N/A N/A N/A S8        30.16F
HERMISTON      SUNNY     93  53  25 CALM      29.94F HX  90
PENDLETON      SUNNY     92  49  22 W16       29.98F
JOHN DAY       SUNNY     91  38  15 NW9G16    30.08F
MEACHAM        SUNNY     84  45  25 VRB7      30.12F
LA GRANDE      SUNNY     93  50  22 NW16      30.01F HX  90
BAKER CITY     SUNNY     91  48  22 NW9       30.04F
BURNS          SUNNY     93  34  12 W9        30.10F
ROME             N/A     98  32  10 S13G21    30.05F HX  92
ONTARIO        SUNNY    100  45  15 NE6       29.93F HX  96
$$



USA.gov is the U.S. government's official web portal to all federal, state and local government web resources and services.